Printer-friendly version
Follow the MPC on Twitter Follow the MPC on Facebook The MPC blog
Minor Planet Center

MPEC 2008-T105: 2008 TM10

The following Minor Planet Electronic Circular may be linked-to from your own Web pages, but must not otherwise be redistributed electronically.

A form allowing access to any MPEC is at the bottom of this page.


Read MPEC 2008-T104 Read MPEC 2008-T106


M.P.E.C. 2008-T105                               Issued 2008 Oct.  9, 16:24 UT

     The Minor Planet Electronic Circulars contain information on unusual
         minor planets and routine data on comets.  They are published
   on behalf of Commission 20 of the International Astronomical Union by the
          Minor Planet Center, Smithsonian Astrophysical Observatory,
                          Cambridge, MA 02138, U.S.A.

             Prepared using the Tamkin Foundation Computer Network

                              MPC@CFA.HARVARD.EDU
          URL http://www.cfa.harvard.edu/iau/mpc.html  ISSN 1523-6714

                                   2008 TM10

Observations:
     K08T10M* C2008 10 08.11554 17 58 52.76 +36 29 28.1          17.3   ET105704
     K08T10M  C2008 10 08.12827 17 58 34.06 +36 27 10.3          16.9   ET105704
     K08T10M  C2008 10 08.14101 17 58 15.40 +36 24 51.5          17.1   ET105704
     K08T10M  C2008 10 09.16398 17 32 44.55 +32 56 55.0          17.4 V ET105G96
     K08T10M  C2008 10 09.16572 17 32 41.82 +32 56 30.6          17.4 V ET105G96
     K08T10M  C2008 10 09.16738 17 32 39.19 +32 56 07.1          17.5 V ET105G96
     K08T10M  C2008 10 09.16912 17 32 36.45 +32 55 42.6          17.4 V ET105G96
     K08T10M  C2008 10 09.18363 17 32 13.66 +32 52 17.4          17.5 V ET105G96
     K08T10M  C2008 10 09.18389 17 32 13.27 +32 52 13.8          17.4 V ET105G96
     K08T10M  C2008 10 09.18414 17 32 12.87 +32 52 10.0          17.4 V ET105G96
     K08T10M  C2008 10 09.18440 17 32 12.44 +32 52 06.6          17.5 V ET105G96
     K08T10M  C2008 10 09.44330 17 25 28.05 +31 50 36.0          17.2 V ET105900
     K08T10M  C2008 10 09.44758 17 25 21.19 +31 49 32.1          17.3 V ET105900
     K08T10M  C2008 10 09.45282 17 25 12.73 +31 48 13.2          17.4 V ET105900
     K08T10M  C2008 10 09.45710 17 25 05.85 +31 47 10.0          17.2 V ET105900

Observer details:
704 Lincoln Laboratory ETS, New Mexico.  Observers M. Bezpalko, D. Torres,
    R. Kracke, G. Spitz, J. Kistler.  Measurers J. Stuart, S. Scruggs.  1.0-m
    f/2.15 reflector + CCD.
900 Moriyama.  Observer Y. Ikari.  0.26-m f/7.0 reflector + CCD.
G96 Mt. Lemmon Survey.  Observer A. Boattini.  Measurers E. C. Beshore,
    A. Boattini, G. J. Garradd, A. R. Gibbs, A. D. Grauer, R. E. Hill,
    R. A. Kowalski, S. M. Larson, R. H. McNaught.  1.5-m reflector + CCD.

Orbital elements:
2008 TM10                                                Earth MOID = 0.0586 AU
Epoch 2008 Nov. 30.0 TT = JDT 2454800.5                 MPC
M   3.79893              (2000.0)            P               Q
n   0.27709967     Peri.  229.05047     +0.33038363     -0.93186334
a   2.3301223      Node   203.02184     +0.93938305     +0.34007643
e   0.6596437      Incl.   22.54187     +0.09168507     -0.12640705
P   3.56           H   19.3           G   0.15           U   9
Residuals in seconds of arc
081008 704  0.4+  0.1-    081009 G96  0.0   0.1-    081009 G96  0.0   0.0
081008 704  0.1-  0.2+    081009 G96  0.0   0.0     081009 900  0.0   0.2-
081008 704  0.1-  0.2+    081009 G96  0.2+  0.1-    081009 900  0.3+  0.1+
081009 G96  0.1+  0.1-    081009 G96  0.4+  0.0     081009 900  0.2-  0.2-
081009 G96  0.2+  0.0     081009 G96  0.3+  0.2-    081009 900  0.2-  0.9+

Ephemeris:
2008 TM10                a,e,i = 2.33, 0.66, 23                  q = 0.7931
Date    TT    R. A. (2000) Decl.     Delta      r     Elong.  Phase     V
2008 10 01    19 58.46   +45 34.9    0.146    1.055   107.7    64.7    17.5
2008 10 03    19 33.86   +44 32.4    0.127    1.036   102.9    70.2    17.4
2008 10 05    19 02.98   +42 39.8    0.109    1.019    96.7    77.2    17.2
2008 10 07    18 24.29   +39 20.0    0.0931   1.001    88.3    86.4    17.2
2008 10 09    17 37.09   +33 34.5    0.0792   0.984    76.8    98.7    17.3
2008 10 11    16 43.09   +24 19.8    0.0695   0.967    61.4   114.9    17.9

Sonia Keys                   (C) Copyright 2008 MPC           M.P.E.C. 2008-T105

Read MPEC 2008-T104 Read MPEC 2008-T106


MPEC number:

Enter an MPEC number in one of the following forms:

  • 1997-B01 (the full form)
  • J97B01 (the packed version of the full form)
  • B01 (the abbreviated form)

Valid HTML 4.01!